State College, PA

3:20 PM EST on January 19, 2018 (GMT -0500)
University Park

Weather History for KUNV - April, 2013

Change the Weather History Date:

Friday, April 26, 2013

  Actual Average Record
Temperature  
Mean Temperature 49 °F -  
Max Temperature 60 °F 61 °F 85 °F (1942)
Min Temperature 38 °F 40 °F 27 °F (1934)
Degree Days  
Heating Degree Days 16    
Moisture  
Dew Point 27 °F    
Average Humidity 50    
Maximum Humidity 79    
Minimum Humidity 19    
Precipitation  
Precipitation 0.00 in - - ()
Sea Level Pressure  
Sea Level Pressure 30.38 in    
Wind  
Wind Speed 4 mph (West)    
Max Wind Speed 12 mph    
Max Gust Speed 16 mph    
Visibility 10 miles    
Events      
Averages and records for this station are not official NWS values.
T = Trace of Precipitation, MM = Missing Value Source: NWS Daily Summary

Daily Weather History Graph

Daily Weather History Graph

Search for Another Location

Airport or City:

Trip Planner

Search our weather history database for the weather conditions in past years. The results will help you decide how hot, cold, wet, or windy it might be!

Date:

Astronomy

Apr. 26, 2013 Rise Set
Actual Time 6:16 AM EDT 8:02 PM EDT
Civil Twilight 5:46 AM EDT 8:32 PM EDT
Nautical Twilight 5:11 AM EDT 9:08 PM EDT
Astronomical Twilight 4:33 AM EDT 9:46 PM EDT
Moon 9:23 PM EDT (4/26) 6:41 AM EDT (4/26)
Length of Visible Light 14h 45m
Length of Day
13h 46m
Full, 99% of the Moon is Illuminated
Apr 26
Full
May 2
Last Quarter
May 9
New
May 18
First Quarter
May 25
Full

Hourly Weather History & Observations

Time (EDT) Temp. Windchill Dew Point Humidity Pressure Visibility Wind Dir Wind Speed Gust Speed Precip Events Conditions
12:15 AM 46.4 °F 42.9 °F 34.0 °F 62% 30.33 in 10.0 mi NW 6.9 mph 16.1 mph N/A   Mostly Cloudy
12:35 AM 45.7 °F 40.6 °F 33.3 °F 62% 30.33 in 10.0 mi WNW 10.4 mph - N/A   Overcast
12:55 AM 45.1 °F 42.0 °F 33.6 °F 64% 30.33 in 10.0 mi WSW 5.8 mph - N/A   Overcast
1:15 AM 44.6 °F 41.4 °F 32.9 °F 64% 30.33 in 10.0 mi West 5.8 mph - N/A   Overcast
1:35 AM 44.2 °F 42.7 °F 33.8 °F 67% 30.34 in 10.0 mi WSW 3.5 mph - N/A   Overcast
1:55 AM 44.1 °F 40.8 °F 33.1 °F 65% 30.34 in 10.0 mi WSW 5.8 mph - N/A   Overcast
2:15 AM 43.7 °F 41.1 °F 33.1 °F 66% 30.34 in 10.0 mi WSW 4.6 mph - N/A   Overcast
2:35 AM 43.2 °F 39.7 °F 32.7 °F 67% 30.34 in 10.0 mi West 5.8 mph - N/A   Mostly Cloudy
2:55 AM 42.6 °F 39.0 °F 32.9 °F 68% 30.34 in 10.0 mi WNW 5.8 mph - N/A   Scattered Clouds
3:15 AM 41.5 °F 37.8 °F 32.9 °F 71% 30.34 in 10.0 mi WNW 5.8 mph - N/A   Clear
3:35 AM 41.9 °F 40.0 °F 33.3 °F 71% 30.35 in 10.0 mi WNW 3.5 mph - N/A   Scattered Clouds
3:55 AM 41.2 °F 38.2 °F 33.1 °F 73% 30.35 in 10.0 mi WNW 4.6 mph - N/A   Scattered Clouds
4:15 AM 41.2 °F 37.3 °F 32.9 °F 72% 30.36 in 10.0 mi WNW 5.8 mph - N/A   Clear
4:35 AM 40.5 °F 38.4 °F 32.9 °F 74% 30.37 in 10.0 mi WNW 3.5 mph - N/A   Clear
4:55 AM 40.1 °F 38.0 °F 32.9 °F 75% 30.38 in 10.0 mi WNW 3.5 mph - N/A   Clear
5:15 AM 39.9 °F 36.7 °F 32.5 °F 75% 30.38 in 10.0 mi WNW 4.6 mph - N/A   Clear
5:35 AM 38.8 °F - 32.7 °F 79% 30.39 in 10.0 mi Calm Calm - N/A   Clear
5:53 AM 39.2 °F - 32.0 °F 75% 30.39 in 10.0 mi Calm Calm - N/A   Clear
6:53 AM 39.2 °F - 32.0 °F 75% 30.42 in 10.0 mi Calm Calm - N/A   Clear
7:53 AM 41.0 °F - 33.8 °F 76% 30.45 in 10.0 mi Calm Calm - N/A   Clear
8:53 AM 44.6 °F - 33.8 °F 66% 30.46 in 10.0 mi Calm Calm - N/A   Clear
9:53 AM 46.4 °F - 30.2 °F 53% 30.47 in 10.0 mi Calm Calm - N/A   Scattered Clouds
10:53 AM 48.2 °F - 26.6 °F 43% 30.46 in 10.0 mi Variable 3.5 mph - N/A   Partly Cloudy
11:53 AM 51.8 °F - 23.0 °F 33% 30.45 in 10.0 mi SSE 3.5 mph - N/A   Partly Cloudy
12:53 PM 53.6 °F - 23.0 °F 30% 30.43 in 10.0 mi SW 4.6 mph - N/A   Partly Cloudy
1:53 PM 57.2 °F - 21.2 °F 25% 30.42 in 10.0 mi WSW 5.8 mph - N/A   Clear
2:53 PM 57.2 °F - 42.8 °F 59% 30.40 in 10.0 mi West 5.8 mph - N/A   Clear
3:53 PM 59.0 °F - 19.4 °F 22% 30.38 in 10.0 mi Calm Calm - N/A   Clear
4:53 PM 60.8 °F - 17.6 °F 19% 30.37 in 10.0 mi West 11.5 mph - N/A   Clear
5:53 PM 59.0 °F - 17.6 °F 20% 30.36 in 10.0 mi NW 3.5 mph - N/A   Partly Cloudy
6:53 PM 59.0 °F - 19.4 °F 22% 30.37 in 10.0 mi Calm Calm - N/A   Partly Cloudy
7:53 PM 57.2 °F - 19.4 °F 23% 30.37 in 10.0 mi Calm Calm - N/A   Partly Cloudy
8:53 PM 55.4 °F - 15.8 °F 21% 30.39 in 10.0 mi NW 3.5 mph - N/A   Partly Cloudy
9:15 PM 55.8 °F - 16.0 °F 21% 30.39 in 10.0 mi WNW 3.5 mph - N/A   Clear
9:35 PM 52.7 °F - 17.2 °F 25% 30.40 in 10.0 mi Calm Calm - N/A   Clear
9:55 PM 51.1 °F - 18.9 °F 28% 30.40 in 10.0 mi Calm Calm - N/A   Clear
10:15 PM 50.2 °F - 19.4 °F 30% 30.40 in 10.0 mi Calm Calm - N/A   Clear
10:35 PM 50.5 °F - 18.9 °F 29% 30.41 in 10.0 mi Calm Calm - N/A   Clear
10:55 PM 50.2 °F - 19.0 °F 29% 30.41 in 10.0 mi Calm Calm - N/A   Clear
11:15 PM 47.8 °F - 18.7 °F 31% 30.41 in 10.0 mi Calm Calm - N/A   Clear
11:35 PM 45.5 °F - 20.1 °F 36% 30.41 in 10.0 mi Calm Calm - N/A   Clear
11:55 PM 46.2 °F - 21.0 °F 37% 30.40 in 10.0 mi Calm Calm - N/A   Clear